DECAYED

STARLINK-1110, 44946 (Decayed)

Orbit data source: Space-Track

STARLINK-1110, 44946 was a payload satellite owned by SpaceX/Seattle (US) in LEO that was launched on Tue, 07 Jan 2020 UTC via an FALCON 9 launch vehicle from the Air Force Eastern Test Range (AFETR). Payload-class satellites include a variety of spacecraft equipped with specific instruments for various scientific and technological missions. These include communications satellites like Starlink; space stations such as the ISS; scientific satellites like the Hubble; Earth observation satellites from companies like Planet Labs, Umbra, and HawkEye 360; GPS; miniature CubeSats for education and research; and military/defense satellites.

Not visible in the next 10 days
Identifier
44946, 2020-001AJ
Orbit
Decayed
Last TLE update
1 year ago
Origin
Manufacturer
SpaceX/Seattle
Mission
Decayed Commercial Communications
Bus & Motor
STARLINK, Unknown motor
Mass
260 kg wet, ~248 kg dry
Launch date (UTC)
2020-01-07 (6 years ago)
Launch vehicle
FALCON 9
Launch site
Air Force Eastern Test Range (AFETR)
Object type
Payload
Rocket body
Debris
Shape & HBR
Box + 1 Pan, 8.86 m
Radar Cross Section
13.562 m², Large (>1 m²)

Expand to show TLE details & history

TLE from 1 year ago
0 STARLINK-1110
1 44946U 20001AJ  24101.30511192  .09874184  11821-4  44382-2 0  9991
2 44946  52.9924  47.4575 0002378 194.8867 193.8851 16.21437839237242
Epoch: 2024-04-10T07:19Z
TLE epoch observation values (Epoch: 2024-04-10T07:19:21.669Z)
Latitude
22.65854°
Longitude
116.83112°
Altitude
217.886 km
Speed
7.778 km/s
True Right ascension
04h 22m 45s
True Declination
22° 31' 36"
Sunlit
Object was in daylight at epoch
Visualization orbit readout
Visualization observer readout
Orbital elements
Apogee altitude
217.513 km
Perigee altitude
214.377 km
Semi-major axis
6,594.082 km
Eccentricity
0.00024
Inclination
52.9924°
RAAN
47.4575°
Arg. of periapsis
194.8867°
True anomaly
Unknown
Mean anomaly
193.8851°
Eccentric anomaly
Unknown
Mean motion
4.05333 °/min
Orbital period
88.82 mins
BSTAR
0.0044382
Loading maneuver chart data...
Loading SW <> Apogee altitude chart data...

STARLINK-1110 Visibility

Observer location: undefined°, undefined°

This satellite is decayed
Span
Click to sort rows by Start time (UTC) header in descending order
Start Az.
Max El. time (UTC)
Max El. Az.
Max El.
End time (UTC)
End Az.
|